Sheridan, WY

1:12 PM MDT on July 27, 2017 (GMT -0600)
Sheridan County

Weather History for KSHR - April, 2013

Change the Weather History Date:

Friday, April 19, 2013

  Actual Average Record
Temperature  
Mean Temperature 41 °F 44 °F  
Max Temperature 53 °F 58 °F 83 °F (1962)
Min Temperature 29 °F 31 °F 5 °F (1966)
Degree Days  
Heating Degree Days 24 21  
Month to date heating degree days 546 435  
Since 1 July heating degree days 6825 6894  
Cooling Degree Days 0 0  
Month to date cooling degree days 0 0  
Year to date cooling degree days 0 0  
Moisture  
Dew Point 26 °F    
Average Humidity 56    
Maximum Humidity 76    
Minimum Humidity 35    
Precipitation  
Precipitation 0.00 in 0.05 in 2.84 in (1948)
Month to date precipitation 0.99 0.87  
Year to date precipitation 3.01 2.95  
Sea Level Pressure  
Sea Level Pressure 29.93 in    
Wind  
Wind Speed 8 mph (WNW)    
Max Wind Speed 25 mph    
Max Gust Speed 30 mph    
Visibility 10 miles    
Events      
T = Trace of Precipitation, MM = Missing Value Source: NWS Daily Summary

Daily Weather History Graph

Daily Weather History Graph

Search for Another Location

Airport or City:

Trip Planner

Search our weather history database for the weather conditions in past years. The results will help you decide how hot, cold, wet, or windy it might be!

Date:

Astronomy

Apr. 19, 2013 Rise Set
Actual Time 6:16 AM MDT 7:58 PM MDT
Civil Twilight 5:45 AM MDT 8:29 PM MDT
Nautical Twilight 5:07 AM MDT 9:07 PM MDT
Astronomical Twilight 4:27 AM MDT 9:48 PM MDT
Moon 1:30 PM MDT (4/19) 2:49 AM MDT (4/19)
Length of Visible Light 14h 44m
Length of Day
13h 42m
Waxing Gibbous, 62% of the Moon is Illuminated
Apr 19
Waxing Gibbous
Apr 25
Full
May 2
Last Quarter
May 9
New
May 17
First Quarter

Hourly Weather History & Observations

Time (MDT) Temp. Windchill Dew Point Humidity Pressure Visibility Wind Dir Wind Speed Gust Speed Precip Events Conditions
12:53 AM 39.0 °F 32.3 °F 28.0 °F 65% 30.09 in 10.0 mi NW 10.4 mph - N/A   Overcast
1:53 AM 35.1 °F 27.9 °F 27.0 °F 72% 30.07 in 10.0 mi West 9.2 mph - N/A   Mostly Cloudy
2:53 AM 37.9 °F 31.5 °F 26.1 °F 62% 30.05 in 10.0 mi West 9.2 mph - N/A   Overcast
3:53 AM 32.0 °F 24.8 °F 24.1 °F 73% 30.04 in 10.0 mi NW 8.1 mph - N/A   Clear
4:53 AM 34.0 °F 26.0 °F 24.1 °F 67% 30.04 in 10.0 mi WNW 10.4 mph - N/A   Mostly Cloudy
5:53 AM 36.0 °F 29.6 °F 24.1 °F 62% 30.02 in 10.0 mi WNW 8.1 mph - N/A   Overcast
6:53 AM 37.0 °F 31.6 °F 25.0 °F 62% 30.02 in 10.0 mi West 6.9 mph - N/A   Overcast
7:53 AM 39.9 °F 35.8 °F 26.1 °F 58% 30.01 in 10.0 mi WNW 5.8 mph - N/A   Overcast
8:53 AM 43.0 °F 35.7 °F 26.1 °F 51% 30.00 in 10.0 mi NNW 15.0 mph - N/A   Overcast
9:53 AM 48.0 °F - 24.1 °F 39% 29.99 in 10.0 mi NW 21.9 mph 29.9 mph N/A   Overcast
10:53 AM 48.0 °F - 24.1 °F 39% 29.97 in 10.0 mi NNW 24.2 mph 28.8 mph N/A   Clear
11:53 AM 51.1 °F - 26.1 °F 38% 29.94 in 10.0 mi NNW 18.4 mph 24.2 mph N/A   Partly Cloudy
12:53 PM 48.9 °F - 25.0 °F 39% 29.93 in 10.0 mi North 15.0 mph - N/A   Mostly Cloudy
1:53 PM 51.1 °F - 25.0 °F 36% 29.91 in 10.0 mi West 6.9 mph - N/A   Mostly Cloudy
2:53 PM 52.0 °F - 25.0 °F 35% 29.88 in 10.0 mi Variable 5.8 mph - N/A   Overcast
3:53 PM 51.1 °F - 24.1 °F 35% 29.88 in 10.0 mi SE 3.5 mph - N/A   Scattered Clouds
4:53 PM 51.1 °F - 26.1 °F 38% 29.86 in 10.0 mi Calm Calm - N/A   Overcast
5:53 PM 52.0 °F - 25.0 °F 35% 29.84 in 10.0 mi Calm Calm - N/A   Mostly Cloudy
6:53 PM 50.0 °F - 28.9 °F 44% 29.83 in 10.0 mi SSE 3.5 mph - N/A   Overcast
7:53 PM 48.0 °F - 30.9 °F 52% 29.82 in 10.0 mi Calm Calm - N/A   Overcast
8:53 PM 42.1 °F 40.2 °F 33.1 °F 70% 29.83 in 10.0 mi SW 3.5 mph - N/A   Overcast
9:53 PM 39.0 °F - 30.0 °F 70% 29.84 in 10.0 mi Calm Calm - N/A   Scattered Clouds
10:53 PM 37.0 °F 32.4 °F 28.9 °F 73% 29.84 in 10.0 mi NNW 5.8 mph - N/A   Mostly Cloudy
11:53 PM 37.0 °F 29.8 °F 30.0 °F 76% 29.84 in 10.0 mi NW 10.4 mph - N/A   Mostly Cloudy